AC2GC-13 Weather Reports


Display with metric or nautical units.
time (UTC)temp
F
wind
direction
speed
MPH
gust
MPH
rain 1hr
in
rain 24hr
in
rain mn
in
humidity
%
barometer
mb
20191024000416 52 209 0.0 1.0 0.00 0.22 0.03 56 1018.8
20191023234616 53 219 0.0 1.0 0.00 0.24 0.03 55 1018.6
20191023232815 53 244 0.0 0.0 0.00 0.24 0.03 56 1018.1
20191023231015 53 252 0.0 1.0 0.00 0.24 0.03 56 1017.7
20191023225215 54 252 0.0 1.0 0.00 0.25 0.03 55 1017.4
20191023223414 54 254 0.0 1.0 0.00 0.25 0.03 53 1017.0
20191023221614 55 260 0.0 1.0 0.00 0.26 0.03 50 1016.7
20191023215814 56 261 0.0 0.0 0.00 0.26 0.03 51 1016.4
20191023214014 56 258 0.0 1.0 0.00 0.26 0.03 48 1016.1
20191023212213 56 242 0.0 3.0 0.00 0.27 0.03 49 1015.7
20191023210413 57 227 0.0 1.0 0.00 0.27 0.03 47 1015.4
20191023204613 58 223 1.0 3.0 0.00 0.27 0.03 45 1015.2
20191023202812 58 245 0.0 0.0 0.00 0.27 0.03 44 1014.9
20191023201012 58 136 1.0 2.0 0.00 0.27 0.03 44 1014.8
20191023195212 58 219 0.0 3.0 0.00 0.27 0.03 47 1014.6
20191023193412 59 264 1.0 3.0 0.00 0.27 0.03 44 1014.4
20191023191611 59 273 0.0 4.0 0.00 0.27 0.03 43 1014.2
20191023185811 59 273 1.0 1.0 0.00 0.27 0.03 44 1013.9
20191023184011 60 256 0.0 2.0 0.00 0.27 0.03 47 1014.0
20191023182211 60 334 0.0 6.0 0.00 0.27 0.03 44 1014.1
20191023180410 59 240 0.0 6.0 0.00 0.27 0.03 48 1013.9
20191023174610 60 144 1.0 3.0 0.00 0.27 0.03 50 1013.9
20191023172810 60 83 0.0 0.0 0.00 0.27 0.03 49 1014.0
20191023171010 61 146 1.0 3.0 0.00 0.27 0.03 53 1013.7
20191023165209 62 348 1.0 3.0 0.00 0.27 0.03 54 1013.5
20191023163409 63 45 1.0 3.0 0.00 0.27 0.03 53 1013.5
20191023161609 64 21 0.0 3.0 0.00 0.27 0.03 58 1013.6
20191023155809 64 327 0.0 1.0 0.00 0.27 0.03 58 1013.7
20191023154008 64 284 2.0 4.0 0.00 0.27 0.03 61 1013.6
20191023152208 63 269 0.0 3.0 0.00 0.27 0.03 66 1013.6
20191023150408 62 130 1.0 3.0 0.00 0.27 0.03 66 1013.3
20191023144607 62 349 0.0 2.0 0.00 0.27 0.03 68 1013.3
20191023142807 61 269 0.0 0.0 0.00 0.27 0.03 70 1013.1
20191023141007 61 275 0.0 1.0 0.00 0.27 0.03 79 1013.2
20191023135207 61 244 0.0 0.0 0.00 0.27 0.03 84 1013.2
20191023133406 60 285 0.0 0.0 0.00 0.27 0.03 92 1012.8
20191023131606 57 35 0.0 0.0 0.00 0.27 0.03 98 1012.6
20191023125806 54 36 0.0 0.0 0.00 0.27 0.03 98 1012.4
20191023124006 53 36 0.0 0.0 0.00 0.27 0.03 98 1012.1
20191023122205 52 36 0.0 0.0 0.00 0.27 0.03 97 1011.8
20191023120405 52 36 0.0 0.0 0.00 0.27 0.03 97 1011.3
20191023114605 51 36 0.0 0.0 0.00 0.27 0.03 97 1011.1
20191023112805 51 36 0.0 0.0 0.00 0.27 0.03 97 1010.8
20191023111004 51 36 0.0 0.0 0.00 0.27 0.03 97 1010.5
20191023105204 52 36 0.0 0.0 0.00 0.27 0.03 97 1010.4
20191023103404 52 29 0.0 0.0 0.00 0.27 0.03 97 1009.8
20191023101604 53 29 0.0 0.0 0.00 0.27 0.03 97 1009.7
20191023095803 53 15 0.0 2.0 0.00 0.27 0.03 97 1009.5
20191023094003 53 19 1.0 2.0 0.00 0.27 0.03 97 1009.4
20191023092203 54 23 0.0 2.0 0.00 0.27 0.03 97 1009.4
20191023090402 54 22 1.0 2.0 0.00 0.27 0.03 97 1009.3
20191023084602 54 349 0.0 2.0 0.00 0.27 0.03 97 1008.9
20191023082802 55 28 0.0 2.0 0.00 0.27 0.03 97 1008.6
20191023081002 55 38 0.0 2.0 0.00 0.27 0.03 97 1008.3
20191023073610 56 28 0.0 2.0 0.00 0.27 0.03 97 1008.5
20191023071810 56 44 0.0 2.0 0.00 0.27 0.03 98 1008.8
20191023070010 56 133 0.0 0.0 0.00 0.27 0.03 97 1008.9
20191023064210 56 133 0.0 1.0 0.03 0.27 0.03 97 1009.0
20191023062409 57 133 0.0 1.0 0.03 0.27 0.03 97 1009.1
20191023060609 57 134 0.0 1.0 0.03 0.27 0.03 98 1009.1
20191023054809 57 134 0.0 3.0 0.00 0.24 0.00 98 1008.9
20191023053008 57 166 0.0 0.0 0.00 0.24 0.00 98 1008.5
20191023051209 57 171 0.0 4.0 0.00 0.24 0.00 98 1008.7
20191023045408 57 142 0.0 4.0 0.00 0.24 0.00 98 1008.9
20191023043608 57 164 0.0 4.0 0.00 0.24 0.00 98 1009.1
20191023041808 57 167 1.0 3.0 0.00 0.24 0.00 98 1009.1
20191023040008 57 193 2.0 3.0 0.00 0.24 0.00 98 1009.5
20191023034404 57 69 2.0 6.0 0.01 0.24 0.24 97 1009.9
20191023032407 57 158 1.0 8.0 0.01 0.24 0.24 98 1010.1
20191023030606 56 171 0.0 6.0 0.01 0.24 0.24 98 1010.5
20191023024806 56 220 3.0 7.0 0.03 0.23 0.23 98 1010.8
20191023023006 56 165 2.0 3.0 0.03 0.23 0.23 97 1010.8
20191023021206 56 139 1.0 6.0 0.05 0.23 0.23 97 1011.4
20191023015405 56 232 0.0 7.0 0.08 0.23 0.23 97 1011.5
20191023013606 55 76 3.0 4.0 0.06 0.21 0.21 97 1011.9
20191023011805 55 109 2.0 9.0 0.14 0.19 0.19 97 1011.9
20191023010005 55 150 1.0 1.0 0.13 0.18 0.18 97 1012.0
20191023004204 55 192 1.0 8.0 0.14 0.17 0.17 97 1012.1
20191023002405 55 186 2.0 7.0 0.11 0.14 0.14 97 1012.8